Sharm El Sheikh, Egypt

12:48 AM EET on April 23, 2018 (GMT +0200)
Sharm El Sheikh

Weather History for HESH - July, 2013

Change the Weather History Date:

Friday, July 5, 2013

  Actual Average Record
Temperature  
Mean Temperature 92 °F -  
Max Temperature 102 °F 100 °F - ()
Min Temperature 82 °F 81 °F - ()
Cooling Degree Days 27    
Growing Degree Days 42 (Base 50)    
Moisture  
Dew Point 53 °F    
Average Humidity 29    
Maximum Humidity 51    
Minimum Humidity 14    
Precipitation  
Precipitation 0.00 in 0.00 in - ()
Sea Level Pressure  
Sea Level Pressure 29.64 in    
Wind  
Wind Speed 10 mph ()    
Max Wind Speed 16 mph    
Max Gust Speed -    
T = Trace of Precipitation, MM = Missing Value Source: Averaged Metar Reports

Daily Weather History Graph

Daily Weather History Graph

Search for Another Location

Airport or City:

Astronomy

Jul. 05, 2013 Rise Set
Actual Time 4:51 AM EET 6:42 PM EET
Civil Twilight 4:24 AM EET 7:09 PM EET
Nautical Twilight 3:52 AM EET 7:41 PM EET
Astronomical Twilight 3:18 AM EET 8:15 PM EET
Moon 2:30 AM EET (7/5) 4:24 PM EET (7/5)
Length of Visible Light 14h 44m
Length of Day
13h 51m
Waning Crescent, 7% of the Moon is Illuminated
Jul 5
Waning Crescent
Jul 8
New
Jul 16
First Quarter
Jul 22
Full
Jul 29
Last Quarter

Hourly Weather History & Observations

Time (EET) Temp. Heat Index Dew Point Humidity Pressure Visibility Wind Dir Wind Speed Gust Speed Precip Events Conditions
12:00 AM 87.8 °F - 51.8 °F 29% 29.65 in - North 8.1 mph - N/A   Clear
1:00 AM 86.0 °F 84.2 °F 53.6 °F 33% 29.65 in - North 8.1 mph - N/A   Clear
2:00 AM 86.0 °F 84.9 °F 57.2 °F 37% 29.62 in - North 15.0 mph - N/A   Clear
3:00 AM 84.2 °F 84.4 °F 60.8 °F 45% 29.62 in - North 12.7 mph - N/A   Clear
4:00 AM 82.4 °F 82.9 °F 60.8 °F 48% 29.65 in - North 13.8 mph - N/A   Clear
5:00 AM 82.4 °F 83.4 °F 62.6 °F 51% 29.65 in - North 13.8 mph - N/A   Clear
6:00 AM 84.2 °F 85.0 °F 62.6 °F 48% 29.65 in - North 15.0 mph - N/A   Clear
7:00 AM 87.8 °F 86.5 °F 57.2 °F 35% 29.68 in - North 15.0 mph - N/A   Clear
8:00 AM 91.4 °F 91.4 °F 60.8 °F 36% 29.68 in - North 16.1 mph - N/A   Clear
9:00 AM 91.4 °F 91.4 °F 60.8 °F 36% 29.68 in - NNE 15.0 mph - N/A   Clear
10:00 AM 95.0 °F 93.7 °F 57.2 °F 28% 29.68 in - NNE 15.0 mph - N/A   Clear
11:00 AM 96.8 °F 95.1 °F 55.4 °F 25% 29.68 in - NNE 11.5 mph - N/A   Clear
12:00 PM 96.8 °F 95.1 °F 55.4 °F 25% 29.65 in - NNE 16.1 mph - N/A   Clear
1:00 PM 100.4 °F - 51.8 °F 20% 29.62 in - North 16.1 mph - N/A   Clear
2:00 PM 102.2 °F - 50.0 °F 17% 29.62 in - NNE 11.5 mph - N/A   Clear
3:00 PM 102.2 °F - 46.4 °F 15% 29.59 in - NNE 10.4 mph - N/A   Clear
4:00 PM 102.2 °F - 44.6 °F 14% 29.59 in - NE 8.1 mph - N/A   Clear
5:00 PM 100.4 °F - 46.4 °F 16% 29.59 in - NNE 6.9 mph - N/A   Clear
6:00 PM 98.6 °F - 48.2 °F 18% 29.59 in - NNE 5.8 mph - N/A   Clear
7:00 PM 93.2 °F - 48.2 °F 21% 29.59 in - NNE 4.6 mph - N/A   Clear
8:00 PM 91.4 °F - 46.4 °F 21% 29.62 in - North 4.6 mph - N/A   Clear
9:00 PM 91.4 °F - 42.8 °F 18% 29.62 in - North 6.9 mph - N/A   Clear
10:00 PM 89.6 °F - 46.4 °F 22% 29.62 in - North 5.8 mph - N/A   Clear
11:00 PM 89.6 °F - 50.0 °F 26% 29.65 in - NNE 5.8 mph - N/A   Clear